ENY3878 KMIA-KTLH

Flight info

Callsign ENY3878
Flight time 1h 4m
Altitude 30000
Route HURCN4 SMELZ JAWJA
Aircraft E175/M-SDE3GILORVW/S

Departure

Time 2026-05-07 21:45
Airport Miami International Airport (KMIA)

Arrival

Time 2026-05-07 22:50
Airport Tallahassee International Airport (KTLH)
Time Latitude Longitude Altitude Speed Heading
2026-05-07 21:19 25.79841 -80.28594 11 ft 0 kts 178°
2026-05-07 21:36 25.79852 -80.28595 11 ft 2 kts 177°
2026-05-07 21:37 25.79867 -80.28596 11 ft 2 kts 178°
2026-05-07 21:37 25.79882 -80.28597 11 ft 2 kts 178°
2026-05-07 21:37 25.79897 -80.28597 12 ft 2 kts 178°
2026-05-07 21:37 25.79912 -80.28598 11 ft 2 kts 178°
2026-05-07 21:38 25.79928 -80.28597 11 ft 2 kts 207°
2026-05-07 21:38 25.79939 -80.28586 12 ft 2 kts 239°
2026-05-07 21:38 25.79943 -80.28574 11 ft 0 kts 262°
2026-05-07 21:38 25.79943 -80.28566 11 ft 0 kts 266°
2026-05-07 21:41 25.79941 -80.28603 11 ft 8 kts 266°
2026-05-07 21:41 25.79938 -80.28697 11 ft 16 kts 268°
2026-05-07 21:41 25.79960 -80.28815 11 ft 15 kts 326°
2026-05-07 21:42 25.80010 -80.28906 11 ft 15 kts 268°
2026-05-07 21:42 25.80006 -80.29028 11 ft 16 kts 269°
2026-05-07 21:42 25.80000 -80.29161 11 ft 17 kts 268°
2026-05-07 21:42 25.79995 -80.29303 11 ft 19 kts 268°
2026-05-07 21:43 25.79989 -80.29458 11 ft 20 kts 266°
2026-05-07 21:43 25.79982 -80.29620 11 ft 21 kts 268°
2026-05-07 21:43 25.79975 -80.29789 11 ft 21 kts 266°
2026-05-07 21:43 25.79982 -80.29961 11 ft 22 kts 282°
2026-05-07 21:44 25.80025 -80.30106 11 ft 10 kts 312°
2026-05-07 21:44 25.80071 -80.30075 11 ft 11 kts 85°
2026-05-07 21:44 25.80080 -80.29848 12 ft 60 kts 87°
2026-05-07 21:44 25.80112 -80.29140 12 ft 121 kts 88°
2026-05-07 21:45 25.80160 -80.28019 63 ft 164 kts 89°
2026-05-07 21:45 25.80234 -80.26717 590 ft 173 kts 85°
2026-05-07 21:45 25.80326 -80.25394 1287 ft 173 kts 88°
2026-05-07 21:45 25.80394 -80.23968 1649 ft 197 kts 89°
2026-05-07 21:46 25.80457 -80.22353 2029 ft 219 kts 89°
2026-05-07 21:46 25.80515 -80.20602 2606 ft 231 kts 88°
2026-05-07 21:46 25.80569 -80.18805 3284 ft 237 kts 87°
2026-05-07 21:46 25.81067 -80.17013 3756 ft 252 kts 51°
2026-05-07 21:47 25.82531 -80.15827 4112 ft 270 kts 14°
2026-05-07 21:47 25.84432 -80.15703 4774 ft 277 kts 356°
2026-05-07 21:47 25.86358 -80.15745 5629 ft 278 kts 359°
2026-05-07 21:47 25.88303 -80.15726 6549 ft 277 kts
2026-05-07 21:48 25.90201 -80.15999 7356 ft 277 kts 343°
2026-05-07 21:48 25.92076 -80.16652 8113 ft 282 kts 342°
2026-05-07 21:48 25.93974 -80.17316 8830 ft 287 kts 343°
2026-05-07 21:48 25.95916 -80.17992 9531 ft 292 kts 343°
2026-05-07 21:49 25.97844 -80.18776 10251 ft 296 kts 328°
2026-05-07 21:49 25.99303 -80.20435 10898 ft 303 kts 298°
2026-05-07 21:49 26.00150 -80.22629 11507 ft 311 kts 292°
2026-05-07 21:49 26.00975 -80.24916 12064 ft 321 kts 292°
2026-05-07 21:50 26.01829 -80.27241 12656 ft 329 kts 296°
2026-05-07 21:50 26.03273 -80.29215 13294 ft 333 kts 322°
2026-05-07 21:50 26.05086 -80.30883 14050 ft 331 kts 317°
2026-05-07 21:50 26.06747 -80.32649 14660 ft 330 kts 315°
2026-05-07 21:51 26.08365 -80.34479 15150 ft 332 kts 314°
2026-05-07 21:51 26.09997 -80.36371 15605 ft 335 kts 313°
2026-05-07 21:51 26.11630 -80.38284 15928 ft 334 kts 313°
2026-05-07 21:51 26.13255 -80.40196 16031 ft 342 kts 313°
2026-05-07 21:52 26.14918 -80.42155 16418 ft 346 kts 313°
2026-05-07 21:52 26.16590 -80.44128 16981 ft 345 kts 313°
2026-05-07 21:52 26.18247 -80.46083 17583 ft 342 kts 313°
2026-05-07 21:52 26.19901 -80.48038 18121 ft 341 kts 313°
2026-05-07 21:53 26.21559 -80.49996 18610 ft 342 kts 312°
2026-05-07 21:53 26.23186 -80.51920 19017 ft 344 kts 312°
2026-05-07 21:53 26.24850 -80.53888 19431 ft 347 kts 312°
2026-05-07 21:53 26.26530 -80.55875 19841 ft 349 kts 312°
2026-05-07 21:54 26.28205 -80.57858 20263 ft 350 kts 311°
2026-05-07 21:54 26.29896 -80.59861 20670 ft 352 kts 311°
2026-05-07 21:54 26.31553 -80.61824 21073 ft 352 kts 311°
2026-05-07 21:54 26.33309 -80.63906 21468 ft 354 kts 311°
2026-05-07 21:55 26.34994 -80.65904 21818 ft 356 kts 311°
2026-05-07 21:55 26.36720 -80.67953 22194 ft 358 kts 311°
2026-05-07 21:55 26.38433 -80.69985 22586 ft 359 kts 311°
2026-05-07 21:55 26.40160 -80.72037 22947 ft 360 kts 310°
2026-05-07 21:56 26.41931 -80.74141 23298 ft 362 kts 310°
2026-05-07 21:56 26.43663 -80.76200 23635 ft 364 kts 310°
2026-05-07 21:56 26.45418 -80.78287 23968 ft 366 kts 310°
2026-05-07 21:56 26.47155 -80.80354 24316 ft 367 kts 310°
2026-05-07 21:57 26.48940 -80.82479 24659 ft 368 kts 310°
2026-05-07 21:57 26.50712 -80.84591 24962 ft 370 kts 310°
2026-05-07 21:57 26.52475 -80.86721 25261 ft 372 kts 310°
2026-05-07 21:57 26.54229 -80.88845 25555 ft 374 kts 310°
2026-05-07 21:58 26.56010 -80.91003 25840 ft 375 kts 310°
2026-05-07 21:58 26.57783 -80.93151 26137 ft 377 kts 310°
2026-05-07 21:58 26.59600 -80.95355 26428 ft 378 kts 310°
2026-05-07 21:58 26.61378 -80.97513 26720 ft 379 kts 310°
2026-05-07 21:59 26.63162 -80.99677 26980 ft 381 kts 310°
2026-05-07 21:59 26.64976 -81.01881 27241 ft 383 kts 310°
2026-05-07 21:59 26.66781 -81.04073 27503 ft 384 kts 310°
2026-05-07 21:59 26.68600 -81.06285 27753 ft 385 kts 310°
2026-05-07 22:00 26.70424 -81.08504 28008 ft 387 kts 310°
2026-05-07 22:00 26.72238 -81.10712 28258 ft 388 kts 310°
2026-05-07 22:00 26.74080 -81.12954 28497 ft 389 kts 309°
2026-05-07 22:00 26.75923 -81.15198 28737 ft 391 kts 309°
2026-05-07 22:01 26.77770 -81.17450 28966 ft 392 kts 309°
2026-05-07 22:01 26.79622 -81.19709 29217 ft 393 kts 309°
2026-05-07 22:01 26.81486 -81.21983 29452 ft 394 kts 309°
2026-05-07 22:01 26.83327 -81.24229 29680 ft 395 kts 309°
2026-05-07 22:02 26.85210 -81.26530 29897 ft 395 kts 309°
2026-05-07 22:02 26.87069 -81.28802 29948 ft 398 kts 309°
2026-05-07 22:02 26.90905 -81.33494 29963 ft 410 kts 309°
2026-05-07 22:03 26.94809 -81.38274 29967 ft 420 kts 309°
2026-05-07 22:03 26.98830 -81.43201 29964 ft 430 kts 309°
2026-05-07 22:04 27.02954 -81.48261 29968 ft 439 kts 309°
2026-05-07 22:04 27.07710 -81.52750 29993 ft 451 kts 323°
2026-05-07 22:05 27.13087 -81.56632 29970 ft 458 kts 323°
2026-05-07 22:05 27.18551 -81.60574 29964 ft 462 kts 323°
2026-05-07 22:06 27.24016 -81.64523 29963 ft 464 kts 323°
2026-05-07 22:06 27.29460 -81.68461 29969 ft 462 kts 323°
2026-05-07 22:07 27.34928 -81.72421 29971 ft 463 kts 323°
2026-05-07 22:07 27.40405 -81.76393 29980 ft 462 kts 323°
2026-05-07 22:08 27.45878 -81.80318 29958 ft 464 kts 328°
2026-05-07 22:08 27.51850 -81.83299 29972 ft 466 kts 332°
2026-05-07 22:09 27.57878 -81.86234 29964 ft 466 kts 332°
2026-05-07 22:09 27.63935 -81.89188 29964 ft 466 kts 332°
2026-05-07 22:10 27.69976 -81.92138 29960 ft 467 kts 332°
2026-05-07 22:10 27.75999 -81.95082 29958 ft 467 kts 332°
2026-05-07 22:11 27.82030 -81.98034 29975 ft 466 kts 332°
2026-05-07 22:11 27.88000 -82.00960 29989 ft 464 kts 331°
2026-05-07 22:12 27.93975 -82.03891 29987 ft 466 kts 332°
2026-05-07 22:12 27.99988 -82.06845 29988 ft 465 kts 332°
2026-05-07 22:13 28.05989 -82.09796 29992 ft 466 kts 331°
2026-05-07 22:13 28.11531 -82.13513 29993 ft 459 kts 320°
2026-05-07 22:14 28.16784 -82.17691 29991 ft 456 kts 320°
2026-05-07 22:14 28.22052 -82.21896 29986 ft 455 kts 320°
2026-05-07 22:15 28.27300 -82.26090 29989 ft 456 kts 320°
2026-05-07 22:15 28.32514 -82.30261 29987 ft 455 kts 320°
2026-05-07 22:16 28.37745 -82.34452 29984 ft 455 kts 320°
2026-05-07 22:16 28.42959 -82.38635 29989 ft 454 kts 320°
2026-05-07 22:17 28.48166 -82.42816 29987 ft 454 kts 320°
2026-05-07 22:17 28.53399 -82.47024 29992 ft 455 kts 320°
2026-05-07 22:18 28.61196 -82.53303 29986 ft 454 kts 320°
2026-05-07 22:19 28.66398 -82.57498 29988 ft 454 kts 320°
2026-05-07 22:19 28.71600 -82.61700 29984 ft 452 kts 320°
2026-05-07 22:20 28.76773 -82.65882 29992 ft 452 kts 319°
2026-05-07 22:20 28.81947 -82.70071 29996 ft 454 kts 319°
2026-05-07 22:21 28.87124 -82.74268 29992 ft 453 kts 319°
2026-05-07 22:21 28.92293 -82.78463 29991 ft 452 kts 319°
2026-05-07 22:22 28.97469 -82.82669 29986 ft 453 kts 319°
2026-05-07 22:22 29.02620 -82.86861 29986 ft 452 kts 319°
2026-05-07 22:23 29.07744 -82.91035 29989 ft 453 kts 319°
2026-05-07 22:23 29.12954 -82.95285 29985 ft 453 kts 319°
2026-05-07 22:24 29.18104 -82.99490 29988 ft 452 kts 319°
2026-05-07 22:24 29.23250 -83.03699 29977 ft 452 kts 319°
2026-05-07 22:24 29.25841 -83.05817 29677 ft 441 kts 319°
2026-05-07 22:25 29.28289 -83.07821 29213 ft 424 kts 319°
2026-05-07 22:25 29.30676 -83.09777 28749 ft 408 kts 318°
2026-05-07 22:25 29.33001 -83.11684 28291 ft 394 kts 318°
2026-05-07 22:25 29.35251 -83.13529 27855 ft 386 kts 318°
2026-05-07 22:26 29.37427 -83.15318 27440 ft 387 kts 318°
2026-05-07 22:26 29.39654 -83.17148 27000 ft 388 kts 318°
2026-05-07 22:26 29.41880 -83.18978 26562 ft 387 kts 318°
2026-05-07 22:26 29.44084 -83.20790 26133 ft 384 kts 318°
2026-05-07 22:27 29.46246 -83.22568 25707 ft 382 kts 318°
2026-05-07 22:27 29.48406 -83.24345 25279 ft 379 kts 318°
2026-05-07 22:27 29.50571 -83.26129 24861 ft 376 kts 318°
2026-05-07 22:27 29.52731 -83.27908 24433 ft 373 kts 317°
2026-05-07 22:28 29.54872 -83.29674 24016 ft 372 kts 317°
2026-05-07 22:28 29.56969 -83.31403 23599 ft 369 kts 318°
2026-05-07 22:28 29.59047 -83.33118 23192 ft 366 kts 317°
2026-05-07 22:28 29.61148 -83.34853 22781 ft 366 kts 317°
2026-05-07 22:29 29.63228 -83.36572 22372 ft 364 kts 317°
2026-05-07 22:29 29.65272 -83.38262 21973 ft 363 kts 318°
2026-05-07 22:29 29.67319 -83.39954 21573 ft 361 kts 318°
2026-05-07 22:29 29.69371 -83.41653 21174 ft 359 kts 318°
2026-05-07 22:30 29.71426 -83.43353 20747 ft 353 kts 318°
2026-05-07 22:30 29.73402 -83.44989 20112 ft 347 kts 318°
2026-05-07 22:30 29.75354 -83.46607 19359 ft 346 kts 318°
2026-05-07 22:30 29.77319 -83.48237 18596 ft 344 kts 318°
2026-05-07 22:31 29.79255 -83.49843 17858 ft 341 kts 318°
2026-05-07 22:31 29.81181 -83.51441 17133 ft 339 kts 318°
2026-05-07 22:31 29.83123 -83.53054 16393 ft 336 kts 319°
2026-05-07 22:31 29.85005 -83.54618 15667 ft 334 kts 319°
2026-05-07 22:32 29.86897 -83.56190 14941 ft 332 kts 319°
2026-05-07 22:32 29.88793 -83.57767 14222 ft 330 kts 319°
2026-05-07 22:32 29.90645 -83.59306 13350 ft 326 kts 319°
2026-05-07 22:32 29.92467 -83.60825 12375 ft 323 kts 320°
2026-05-07 22:33 29.94304 -83.62354 11389 ft 318 kts 320°
2026-05-07 22:33 29.95923 -83.63980 10632 ft 301 kts 302°
2026-05-07 22:33 29.96622 -83.66164 10049 ft 283 kts 274°
2026-05-07 22:33 29.96637 -83.68375 9539 ft 271 kts 269°
2026-05-07 22:34 29.96582 -83.70533 8916 ft 265 kts 269°
2026-05-07 22:34 29.96525 -83.72620 8242 ft 262 kts 269°
2026-05-07 22:34 29.96463 -83.74735 7517 ft 261 kts 269°
2026-05-07 22:34 29.96402 -83.76816 6804 ft 260 kts 269°
2026-05-07 22:35 29.96346 -83.78911 6266 ft 260 kts 269°
2026-05-07 22:35 29.96291 -83.80988 5809 ft 257 kts 269°
2026-05-07 22:35 29.96242 -83.83030 5368 ft 254 kts 269°
2026-05-07 22:35 29.96202 -83.85055 4905 ft 253 kts 269°
2026-05-07 22:36 29.96165 -83.87126 4417 ft 252 kts 269°
2026-05-07 22:36 29.96129 -83.89131 4036 ft 252 kts 269°
2026-05-07 22:36 29.96091 -83.91143 3992 ft 250 kts 269°
2026-05-07 22:36 29.96051 -83.93195 3983 ft 251 kts 269°
2026-05-07 22:37 29.96013 -83.95213 3979 ft 251 kts 269°
2026-05-07 22:37 29.95974 -83.97216 3980 ft 252 kts 269°
2026-05-07 22:37 29.95935 -83.99265 3976 ft 252 kts 269°
2026-05-07 22:37 29.95900 -84.01296 3976 ft 251 kts 270°
2026-05-07 22:38 29.95866 -84.03298 3978 ft 251 kts 269°
2026-05-07 22:38 29.95837 -84.05328 3977 ft 252 kts 269°
2026-05-07 22:38 29.95811 -84.07366 3976 ft 252 kts 270°
2026-05-07 22:38 29.95787 -84.09394 3976 ft 252 kts 270°
2026-05-07 22:39 29.96061 -84.11392 3985 ft 250 kts 288°
2026-05-07 22:39 29.96679 -84.13308 3981 ft 251 kts 290°
2026-05-07 22:39 29.97285 -84.15143 3954 ft 233 kts 290°
2026-05-07 22:39 29.97841 -84.16819 3963 ft 213 kts 290°
2026-05-07 22:40 29.98354 -84.18368 3960 ft 199 kts 290°
2026-05-07 22:40 29.98951 -84.19785 3650 ft 198 kts 299°
2026-05-07 22:40 29.99683 -84.21152 3313 ft 198 kts 300°
2026-05-07 22:40 30.00415 -84.22503 3016 ft 196 kts 300°
2026-05-07 22:41 30.01142 -84.23840 2979 ft 194 kts 300°
2026-05-07 22:41 30.01881 -84.25184 2968 ft 196 kts 300°
2026-05-07 22:41 30.02624 -84.26491 2927 ft 192 kts 308°
2026-05-07 22:41 30.03705 -84.27319 2864 ft 183 kts 339°
2026-05-07 22:42 30.04922 -84.27678 2654 ft 179 kts 340°
2026-05-07 22:42 30.06144 -84.28036 2319 ft 181 kts 340°
2026-05-07 22:42 30.07387 -84.28406 1966 ft 184 kts 340°
2026-05-07 22:42 30.08638 -84.28783 1645 ft 186 kts 339°
2026-05-07 22:43 30.09904 -84.29166 1583 ft 184 kts 340°
2026-05-07 22:43 30.11150 -84.29546 1566 ft 185 kts 339°
2026-05-07 22:43 30.12410 -84.29930 1562 ft 185 kts 339°
2026-05-07 22:43 30.13665 -84.30314 1564 ft 184 kts 340°
2026-05-07 22:44 30.14917 -84.30698 1567 ft 185 kts 340°
2026-05-07 22:44 30.16170 -84.31081 1566 ft 185 kts 340°
2026-05-07 22:44 30.17439 -84.31471 1567 ft 185 kts 340°
2026-05-07 22:44 30.18683 -84.31852 1566 ft 185 kts 340°
2026-05-07 22:45 30.19948 -84.32240 1568 ft 184 kts 339°
2026-05-07 22:45 30.21196 -84.32622 1569 ft 184 kts 339°
2026-05-07 22:45 30.22467 -84.33013 1570 ft 184 kts 340°
2026-05-07 22:45 30.23711 -84.33395 1565 ft 181 kts 340°
2026-05-07 22:46 30.24882 -84.33751 1648 ft 164 kts 339°
2026-05-07 22:46 30.25996 -84.34094 1559 ft 163 kts 339°
2026-05-07 22:46 30.27101 -84.34435 1567 ft 163 kts 339°
2026-05-07 22:46 30.28204 -84.34775 1563 ft 163 kts 339°
2026-05-07 22:47 30.29326 -84.35120 1566 ft 163 kts 339°
2026-05-07 22:47 30.30435 -84.35461 1569 ft 163 kts 339°
2026-05-07 22:47 30.31542 -84.35770 1552 ft 166 kts 345°
2026-05-07 22:47 30.32722 -84.35809 1311 ft 166 kts 354°
2026-05-07 22:48 30.33847 -84.35815 1082 ft 151 kts 354°
2026-05-07 22:48 30.34860 -84.35826 896 ft 137 kts 353°
2026-05-07 22:48 30.35809 -84.35832 728 ft 134 kts 355°
2026-05-07 22:48 30.36764 -84.35832 570 ft 136 kts 353°
2026-05-07 22:49 30.37727 -84.35861 404 ft 136 kts 353°
2026-05-07 22:49 30.38677 -84.35869 210 ft 138 kts 355°
2026-05-07 22:49 30.39659 -84.35879 58 ft 133 kts 356°
2026-05-07 22:49 30.40453 -84.35890 70 ft 90 kts 358°
2026-05-07 22:50 30.40918 -84.35889 75 ft 37 kts
2026-05-07 22:50 30.41121 -84.35879 75 ft 17 kts 39°
2026-05-07 22:50 30.41099 -84.35768 74 ft 17 kts 173°
2026-05-07 22:50 30.40979 -84.35766 75 ft 17 kts 181°
2026-05-07 22:51 30.40855 -84.35765 74 ft 18 kts 179°
2026-05-07 22:51 30.40716 -84.35763 72 ft 20 kts 180°
2026-05-07 22:51 30.40566 -84.35761 70 ft 22 kts 179°
2026-05-07 22:51 30.40402 -84.35760 68 ft 24 kts 180°
2026-05-07 22:52 30.40226 -84.35758 65 ft 26 kts 179°
2026-05-07 22:52 30.40034 -84.35756 61 ft 27 kts 180°
2026-05-07 22:52 30.39860 -84.35754 58 ft 25 kts 179°
2026-05-07 22:52 30.39674 -84.35751 55 ft 27 kts 179°
2026-05-07 22:53 30.39509 -84.35731 54 ft 18 kts 136°
2026-05-07 22:53 30.39425 -84.35615 55 ft 18 kts 124°
2026-05-07 22:53 30.39409 -84.35471 57 ft 19 kts 89°
2026-05-07 22:53 30.39410 -84.35274 60 ft 27 kts 90°
2026-05-07 22:54 30.39412 -84.35054 64 ft 26 kts 89°
2026-05-07 22:54 30.39414 -84.34845 68 ft 25 kts 90°
2026-05-07 22:54 30.39443 -84.34722 68 ft 12 kts 28°
2026-05-07 22:54 30.39464 -84.34661 68 ft 4 kts 98°
2026-05-07 22:55 30.39463 -84.34653 67 ft 0 kts 99°